Palermo, Italy

1:39 PM CEST on April 19, 2018 (GMT +0200)
Punta Raisi

Weather History for LICJ - January, 2018

Change the Weather History Date:

Friday, January 12, 2018

  Actual Average Record
Temperature  
Mean Temperature 54 °F -  
Max Temperature 57 °F 59 °F 64 °F (2001)
Min Temperature 50 °F 50 °F 40 °F (2017)
Degree Days  
Heating Degree Days 12    
Growing Degree Days 4 (Base 50)    
Moisture  
Dew Point 44 °F    
Average Humidity 71    
Maximum Humidity 100    
Minimum Humidity 49    
Precipitation  
Precipitation 0.04 in 0.09 in - ()
Sea Level Pressure  
Sea Level Pressure 29.81 in    
Wind  
Wind Speed 13 mph ()    
Max Wind Speed 22 mph    
Max Gust Speed 21 mph    
Visibility 6.3 miles    
Events Rain    
Averages and records for this station are not official NWS values.
T = Trace of Precipitation, MM = Missing Value Source: Averaged Metar Reports

Daily Weather History Graph

Daily Weather History Graph

Search for Another Location

Airport or City:

Astronomy

Jan. 12, 2018 Rise Set
Actual Time 7:23 AM CET 5:08 PM CET
Civil Twilight 6:54 AM CET 5:37 PM CET
Nautical Twilight 6:22 AM CET 6:09 PM CET
Astronomical Twilight 5:50 AM CET 6:41 PM CET
Moon 3:15 AM CET (1/12) 1:55 PM CET (1/12)
Length of Visible Light 10h 42m
Length of Day
9h 44m
Waning Crescent, 18% of the Moon is Illuminated
Jan 12
Waning Crescent
Jan 17
New
Jan 24
First Quarter
Jan 31
Full
Feb 7
Last Quarter

Hourly Weather History & Observations

Time (CET) Temp. Dew Point Humidity Pressure Visibility Wind Dir Wind Speed Gust Speed Precip Events Conditions
12:20 AM 53.6 °F 42.8 °F 67% 29.83 in 6.2 mi SSW 18.4 mph - N/A   Mostly Cloudy
12:50 AM 51.8 °F 42.8 °F 71% 29.83 in 6.2 mi SSW 19.6 mph - N/A Rain Light Rain
1:00 AM 50 °F 44 °F 74% 29.83 in 6 mi SSW 18.4 mph - -   Mostly Cloudy
1:20 AM 51.8 °F 42.8 °F 71% 29.80 in 6.2 mi SSW 18.4 mph - N/A Rain Light Rain
1:50 AM 51.8 °F 41.0 °F 67% 29.80 in 6.2 mi South 17.3 mph - N/A   Mostly Cloudy
2:20 AM 50.0 °F 44.6 °F 82% 29.83 in 6.2 mi SSW 17.3 mph - N/A Rain Light Rain
2:50 AM 50.0 °F 42.8 °F 76% 29.80 in 6.2 mi South 19.6 mph - N/A   Mostly Cloudy
3:20 AM 50.0 °F 41.0 °F 71% 29.80 in 6.2 mi South 17.3 mph - N/A   Scattered Clouds
3:50 AM 51.8 °F 42.8 °F 71% 29.80 in 6.2 mi South 18.4 mph - N/A   Scattered Clouds
4:00 AM 51 °F 43 °F 66% 29.79 in 6 mi South 19.6 mph - -   Partly Cloudy
4:20 AM 51.8 °F 42.8 °F 71% 29.77 in 6.2 mi South 21.9 mph - N/A   Scattered Clouds
4:50 AM 51.8 °F 42.8 °F 71% 29.77 in 6.2 mi SSW 20.7 mph - N/A   Scattered Clouds
5:20 AM 50.0 °F 44.6 °F 82% 29.77 in 6.2 mi SSW 18.4 mph - N/A Rain Light Rain
5:50 AM 50.0 °F 44.6 °F 82% 29.77 in 6.2 mi SSW 17.3 mph - N/A   Scattered Clouds
6:20 AM 51.8 °F 42.8 °F 71% 29.77 in 6.2 mi South 17.3 mph - N/A   Mostly Cloudy
6:50 AM 51.8 °F 42.8 °F 71% 29.77 in 6.2 mi SSW 19.6 mph - N/A Rain Light Rain
7:00 AM 52 °F 43 °F 61% 29.78 in 6 mi South 19.6 mph - -   Mostly Cloudy
7:20 AM 51.8 °F 42.8 °F 71% 29.77 in 6.2 mi South 17.3 mph - N/A   Mostly Cloudy
7:50 AM 51.8 °F 42.8 °F 71% 29.77 in 6.2 mi South 11.5 mph - N/A   Mostly Cloudy
8:20 AM 51.8 °F 42.8 °F 71% 29.77 in 6.2 mi South 12.7 mph - N/A   Mostly Cloudy
8:50 AM 53.6 °F 42.8 °F 67% 29.77 in 6.2 mi South 13.8 mph - N/A   Mostly Cloudy
9:20 AM 53.6 °F 42.8 °F 67% 29.77 in 6.2 mi South 13.8 mph - N/A   Mostly Cloudy
9:50 AM 53.6 °F 42.8 °F 67% 29.80 in 6.2 mi South 11.5 mph - N/A   Scattered Clouds
10:20 AM 55.4 °F 41.0 °F 58% 29.80 in 6.2 mi SSW 6.9 mph - N/A   Mostly Cloudy
10:50 AM 55.4 °F 42.8 °F 63% 29.80 in 6.2 mi South 12.7 mph - N/A   Mostly Cloudy
11:20 AM 57.2 °F 42.8 °F 59% 29.77 in 6.2 mi South 9.2 mph 20.7 mph N/A   Mostly Cloudy
11:50 AM 57.2 °F 50.0 °F 77% 29.77 in 6.2 mi South 11.5 mph - N/A   Scattered Clouds
12:20 PM 57.2 °F 42.8 °F 59% 29.77 in 6.2 mi SSE 10.4 mph - N/A   Mostly Cloudy
12:50 PM 55.4 °F 42.8 °F 63% 29.74 in 6.2 mi NE 3.5 mph - N/A   Mostly Cloudy
1:00 PM 56 °F 42 °F 49% 29.76 in - 1.2 mph - -  
1:20 PM 57.2 °F 41.0 °F 55% 29.74 in 6.2 mi Variable 1.2 mph - N/A   Mostly Cloudy
1:50 PM 55.4 °F 42.8 °F 63% 29.74 in 6.2 mi Variable 2.3 mph - N/A   Mostly Cloudy
2:20 PM 55.4 °F 42.8 °F 63% 29.74 in 6.2 mi SW 6.9 mph - N/A   Mostly Cloudy
2:50 PM 55.4 °F 42.8 °F 63% 29.74 in 6.2 mi SSW 3.5 mph - N/A   Mostly Cloudy
3:20 PM 55.4 °F 42.8 °F 63% 29.77 in 6.2 mi ENE 4.6 mph - N/A   Mostly Cloudy
3:50 PM 55.4 °F 44.6 °F 67% 29.77 in 6.2 mi East 3.5 mph - N/A   Mostly Cloudy
4:00 PM 55 °F 44 °F 57% 29.78 in 9 mi ENE 4.6 mph - -  
4:20 PM 53.6 °F 44.6 °F 72% 29.77 in 6.2 mi East 6.9 mph - N/A   Mostly Cloudy
4:50 PM 53.6 °F 44.6 °F 72% 29.80 in 6.2 mi ENE 9.2 mph - N/A   Mostly Cloudy
5:20 PM 51.8 °F 46.4 °F 82% 29.80 in 6.2 mi NE 9.2 mph - N/A   Mostly Cloudy
5:50 PM 50.0 °F 42.8 °F 76% 29.83 in - ENE 8.1 mph - N/A   Clear
6:20 PM 51.8 °F 51.8 °F 100% 29.83 in - NE 6.9 mph - N/A   Clear
6:50 PM 53.6 °F 48.2 °F 82% 29.83 in - NE 10.4 mph - N/A   Clear
7:00 PM 53 °F 47 °F 72% 29.86 in 9 mi ENE 10.4 mph - -  
7:20 PM 53.6 °F 46.4 °F 77% 29.86 in 6.2 mi ENE 11.5 mph - N/A   Scattered Clouds
7:50 PM 51.8 °F 50.0 °F 94% 29.86 in 6.2 mi East 10.4 mph - N/A   Scattered Clouds
8:20 PM 51.8 °F 41.0 °F 67% 29.89 in 6.2 mi ENE 5.8 mph - N/A   Scattered Clouds
8:50 PM 53.6 °F 44.6 °F 72% 29.89 in 6.2 mi ENE 10.4 mph - N/A   Scattered Clouds
9:20 PM 53.6 °F 50.0 °F 88% 29.92 in 5.0 mi NE 9.2 mph - N/A Rain Rain
9:50 PM 50.0 °F 44.6 °F 82% 29.92 in 6.2 mi East 11.5 mph - N/A   Scattered Clouds
10:20 PM 50.0 °F 42.8 °F 76% 29.92 in 6.2 mi ENE 6.9 mph - N/A   Scattered Clouds
10:50 PM 51.8 °F 44.6 °F 76% 29.92 in 6.2 mi NE 4.6 mph - N/A   Scattered Clouds
11:20 PM 50.0 °F 44.6 °F 82% 29.92 in 6.2 mi ENE 6.9 mph - N/A   Scattered Clouds
11:50 PM 53.6 °F 44.6 °F 72% 29.92 in 6.2 mi NE 8.1 mph - N/A   Scattered Clouds